Regional Weather Roundup
Issued by NWS

Home | Current Version | Previous Version | Graphics & Text | Print | Product List | Glossary On
Versions: 1 2 3 4 5 6 7 8 9 10 11 12 13 14 15 16 17 18 19 20 21 22 23 24 25 26 27 28 29 30 31 32 33 34 35 36 37 38 39 40 41 42 43 44 45 46 47 48 49 50
000
ASUS45 KABQ 040101
RWRNM
NEW MEXICO REGIONAL WEATHER ROUNDUP
NATIONAL WEATHER SERVICE ALBUQUERQUE NM
700 PM MDT THU SEP 03 2015

NOTE: "FAIR" MEANS FEW OR NO CLOUDS BELOW 12,000 FEET AGL WITH NO
       SIGNIFICANT WEATHER OR OBSTRUCTIONS TO VISION.

      THIS PRODUCT IS RELEASED AS TWO VERSIONS.  ONE VERSION NEAR
      THE TOP OF THE HOUR CONTAINING PRELIMINARY DATA FROM ALBUQUERQUE
      AND OTHER STATIONS.  A FINAL VERSION WITH ADDITIONAL DATA IS
      ISSUED ABOUT 10 MINUTES AFTER THE HOUR.

NMZ501-503-504-510>518-040200-
NORTHWEST PLATEAU/NORTHCENTRAL MOUNTAINS

CITY           SKY/WX    TMP DP  RH WIND       PRES   REMARKS
FARMINGTON     CLEAR     80  34  19 W6        30.00S
SANTA FE       PTCLDY    79  37  22 W10       30.07R
TAOS           MOCLDY    75  39  27 W14       30.13S
ANGEL FIRE     FAIR      63  41  45 CALM      30.22S

$$
NMZ402-403-502-505>509-040200-
WESTCENTRAL MOUNTAINS/SOUTHWEST MOUNTAINS

CITY           SKY/WX    TMP DP  RH WIND       PRES   REMARKS
GALLUP         CLOUDY    72  42  34 SW12      30.13R
SILVER CITY      N/A     73  50  43 W10       30.12R

$$
NMZ407-409-411-412-040200-
SOUTHERN DESERTS

CITY           SKY/WX    TMP DP  RH WIND       PRES   REMARKS
DEMING         MOCLDY    82  52  35 W10       30.01S
HOLLOMAN AFB   CLOUDY    87  48  25 SW6       29.95R
ALAMOGORDO     MOCLDY    84  46  26 S5        29.97S
T OR C         RAIN      69  59  70 W24G31    30.04R

$$
NMZ519>523-040200-
CENTRAL VALLEYS/CENTRAL HIGHLANDS

CITY           SKY/WX    TMP DP  RH WIND       PRES   REMARKS
ALBUQUERQUE    MOCLDY    84  43  23 SW14      30.02R
DOUBLE EAGLE   MOCLDY    81  43  26 VRB6      30.06R
MORIARTY ARPT  FAIR      79  38  22 SW6       30.10S
CLINES CORNERS CLEAR     74  40  29 W9        30.14R
BELEN          MOCLDY    83  42  23 S22       30.01S
SOCORRO        NOT AVBL

$$
NMZ524>526-539-540-040200-
SOUTHCENTRAL MOUNTAINS

CITY           SKY/WX    TMP DP  RH WIND       PRES   REMARKS
RUIDOSO        MOCLDY    73  45  35 SW9       30.17S

$$
NMZ527>531-040200-
NORTHEAST HIGHLANDS/NORTHEAST PLAINS

CITY           SKY/WX    TMP DP  RH WIND       PRES   REMARKS
LAS VEGAS      CLEAR     76  43  30 W8        30.11R
RATON          MOCLDY    80  41  24 SW12      30.01R
CLAYTON        PTCLDY    81  49  32 S15       29.94R

$$
NMZ532>537-040200-
EASTCENTRAL PLAINS

CITY           SKY/WX    TMP DP  RH WIND       PRES   REMARKS
TUCUMCARI      PTCLDY    87  48  25 SW8       29.89S
CANNON AFB     MOCLDY    86  52  30 S15       29.95R
CLOVIS AIRPORT MOCLDY    84  52  32 S13       29.96S

$$
NMZ028-029-538-040200-
SOUTHEAST PLAINS

CITY           SKY/WX    TMP DP  RH WIND       PRES   REMARKS
ROSWELL        MOCLDY    90  48  23 S7        29.90R
ARTESIA        MOCLDY    91  50  24 S10       29.90S
CARLSBAD       MOCLDY    92  45  19 SE13      29.87S
HOBBS          MOCLDY    86  46  25 S9        29.94S


$$



USA.gov is the U.S. government's official web portal to all federal, state and local government web resources and services.